Clinton, AR

2:41 AM CST on February 14, 2016 (GMT -0600)
Clinton

Weather History for KCCA - February, 2014

Change the Weather History Date:

Wednesday, February 26, 2014

  Actual Average (KFLP) Record (KFLP)
Temperature  
Mean Temperature 29 °F -  
Max Temperature 39 °F 51 °F 69 °F (2009)
Min Temperature 19 °F 33 °F 19 °F (2002)
Degree Days  
Heating Degree Days 36    
Moisture  
Dew Point 10 °F    
Average Humidity 46    
Maximum Humidity 80    
Minimum Humidity 22    
Precipitation  
Precipitation 0.00 in - - ()
Sea Level Pressure  
Sea Level Pressure 30.21 in    
Wind  
Wind Speed 6 mph (NNW)    
Max Wind Speed 14 mph    
Max Gust Speed 21 mph    
Visibility 10 miles    
Events      
Averages and records for this station are not official NWS values.
T = Trace of Precipitation, MM = Missing Value Source: NWS Daily Summary

Daily Weather History Graph

Daily Weather History Graph

Search for Another Location

Airport or City:

Trip Planner

Search our weather history database for the weather conditions in past years. The results will help you decide how hot, cold, wet, or windy it might be!

Date:

Astronomy

Feb. 26, 2014 Rise Set
Actual Time 6:43 AM CST 6:02 PM CST
Civil Twilight 6:17 AM CST 6:28 PM CST
Nautical Twilight 5:48 AM CST 6:57 PM CST
Astronomical Twilight 5:18 AM CST 7:27 PM CST
Moon 4:25 AM CST (2/26) 3:21 PM CST (2/26)
Length of Visible Light 12h 10m
Length of Day
11h 18m
Waning Crescent, 10% of the Moon is Illuminated
Feb 26
Waning Crescent
Mar 1
New
Mar 8
First Quarter
Mar 16
Full
Mar 23
Last Quarter

Hourly Weather History & Observations

Time (CST) Temp. Windchill Dew Point Humidity Pressure Visibility Wind Dir Wind Speed Gust Speed Precip Events Conditions
12:15 AM 35.6 °F 29.2 °F 17.6 °F 48% 30.22 in 10.0 mi North 8.1 mph 17.3 mph N/A   Overcast
12:35 AM 35.6 °F 30.7 °F 17.6 °F 48% 30.23 in 10.0 mi North 5.8 mph - N/A   Overcast
12:55 AM 35.6 °F 29.9 °F 17.6 °F 48% 30.25 in 10.0 mi NNW 6.9 mph - N/A   Overcast
1:15 AM 33.8 °F 29.6 °F 17.6 °F 52% 30.26 in 10.0 mi North 4.6 mph 18.4 mph N/A   Overcast
1:35 AM 33.8 °F 26.4 °F 17.6 °F 52% 30.27 in 10.0 mi NNW 9.2 mph 19.6 mph N/A   Overcast
1:55 AM 33.8 °F 28.6 °F 17.6 °F 52% 30.28 in 10.0 mi NNW 5.8 mph - N/A   Overcast
2:15 AM 32.0 °F 24.8 °F 15.8 °F 51% 30.29 in 10.0 mi NNW 8.1 mph 19.6 mph N/A   Overcast
2:35 AM 32.0 °F 25.6 °F 15.8 °F 51% 30.29 in 10.0 mi North 6.9 mph 18.4 mph N/A   Overcast
2:55 AM 32.0 °F 23.0 °F 15.8 °F 51% 30.29 in 10.0 mi NNW 11.5 mph 20.7 mph N/A   Overcast
3:15 AM 32.0 °F 23.6 °F 15.8 °F 51% 30.28 in 10.0 mi North 10.4 mph 16.1 mph N/A   Overcast
3:35 AM 32.0 °F 24.8 °F 14.0 °F 48% 30.29 in 10.0 mi NNW 8.1 mph 16.1 mph N/A   Overcast
3:55 AM 32.0 °F 22.5 °F 14.0 °F 48% 30.27 in 10.0 mi North 12.7 mph 16.1 mph N/A   Overcast
4:15 AM 30.2 °F 21.3 °F 14.0 °F 51% 30.27 in 10.0 mi NNW 10.4 mph 16.1 mph N/A   Overcast
4:35 AM 30.2 °F 21.9 °F 12.2 °F 47% 30.27 in 10.0 mi NNW 9.2 mph - N/A   Mostly Cloudy
4:55 AM 30.2 °F 22.6 °F 12.2 °F 47% 30.28 in 10.0 mi NNW 8.1 mph - N/A   Overcast
5:15 AM 28.4 °F 21.2 °F 12.2 °F 51% 30.28 in 10.0 mi North 6.9 mph - N/A   Scattered Clouds
5:35 AM 28.4 °F 24.6 °F 14.0 °F 55% 30.28 in 10.0 mi NNE 3.5 mph - N/A   Clear
5:55 AM 28.4 °F 22.2 °F 14.0 °F 55% 30.29 in 10.0 mi North 5.8 mph - N/A   Clear
6:15 AM 26.6 °F 22.6 °F 14.0 °F 59% 30.29 in 10.0 mi North 3.5 mph - N/A   Clear
6:35 AM 26.6 °F 21.2 °F 12.2 °F 55% 30.30 in 10.0 mi NNE 4.6 mph - N/A   Clear
6:55 AM 24.8 °F 14.6 °F 12.2 °F 59% 30.31 in 10.0 mi North 10.4 mph - N/A   Clear
7:15 AM 24.8 °F 17.9 °F 12.2 °F 59% 30.31 in 10.0 mi North 5.8 mph - N/A   Clear
7:35 AM 24.8 °F 16.9 °F 12.2 °F 59% 30.32 in 10.0 mi North 6.9 mph - N/A   Clear
7:55 AM 26.6 °F 19.1 °F 12.2 °F 55% 30.32 in 10.0 mi North 6.9 mph - N/A   Clear
8:15 AM 26.6 °F 17.5 °F 10.4 °F 51% 30.32 in 10.0 mi NNW 9.2 mph - N/A   Clear
8:35 AM 26.6 °F 19.1 °F 10.4 °F 51% 30.33 in 10.0 mi NNW 6.9 mph - N/A   Clear
8:55 AM 28.4 °F 19.1 °F 8.6 °F 43% 30.33 in 10.0 mi NW 10.4 mph 17.3 mph N/A   Clear
9:15 AM 28.4 °F 21.2 °F 6.8 °F 40% 30.33 in 10.0 mi NNW 6.9 mph - N/A   Clear
9:35 AM 28.4 °F 19.7 °F 5.0 °F 37% 30.33 in 10.0 mi NNW 9.2 mph 18.4 mph N/A   Clear
9:55 AM 30.2 °F 26.7 °F 5.0 °F 34% 30.32 in 10.0 mi NNE 3.5 mph - N/A   Clear
10:15 AM 30.2 °F 21.9 °F 5.0 °F 34% 30.31 in 10.0 mi North 9.2 mph 17.3 mph N/A   Clear
10:35 AM 30.2 °F 24.3 °F 5.0 °F 34% 30.30 in 10.0 mi North 5.8 mph - N/A   Clear
10:55 AM 32.0 °F 28.7 °F 5.0 °F 32% 30.29 in 10.0 mi NNE 3.5 mph - N/A   Clear
11:15 AM 32.0 °F 27.5 °F 3.2 °F 30% 30.28 in 10.0 mi North 4.6 mph - N/A   Clear
11:35 AM 32.0 °F 26.4 °F 3.2 °F 30% 30.28 in 10.0 mi North 5.8 mph - N/A   Clear
11:55 AM 32.0 °F 25.6 °F 5.0 °F 32% 30.27 in 10.0 mi NNW 6.9 mph - N/A   Clear
12:15 PM 33.8 °F 30.8 °F 6.8 °F 32% 30.25 in 10.0 mi NW 3.5 mph 16.1 mph N/A   Clear
12:35 PM 35.6 °F 27.5 °F 10.4 °F 35% 30.24 in 10.0 mi WNW 11.5 mph - N/A   Clear
12:55 PM 33.8 °F 29.6 °F 8.6 °F 35% 30.24 in 10.0 mi NNW 4.6 mph 16.1 mph N/A   Clear
1:15 PM 35.6 °F 28.6 °F 5.0 °F 28% 30.22 in 10.0 mi NNW 9.2 mph 20.7 mph N/A   Clear
1:35 PM 35.6 °F 26.6 °F 5.0 °F 28% 30.20 in 10.0 mi NW 13.8 mph 18.4 mph N/A   Clear
1:55 PM 35.6 °F 28.6 °F 5.0 °F 28% 30.19 in 10.0 mi WNW 9.2 mph - N/A   Clear
2:15 PM 35.6 °F 29.9 °F 3.2 °F 26% 30.19 in 10.0 mi NNW 6.9 mph - N/A   Clear
2:35 PM 37.4 °F 32.1 °F 3.2 °F 24% 30.17 in 10.0 mi WNW 6.9 mph - N/A   Clear
2:55 PM 37.4 °F 30.8 °F 3.2 °F 24% 30.16 in 10.0 mi WNW 9.2 mph - N/A   Clear
3:15 PM 37.4 °F 30.3 °F 3.2 °F 24% 30.15 in 10.0 mi WNW 10.4 mph - N/A   Clear
3:35 PM 37.4 °F 32.8 °F 3.2 °F 24% 30.13 in 10.0 mi West 5.8 mph - N/A   Clear
3:55 PM 39.2 °F 34.2 °F 3.2 °F 22% 30.12 in 10.0 mi WNW 6.9 mph - N/A   Clear
4:15 PM 39.2 °F 34.2 °F 3.2 °F 22% 30.12 in 10.0 mi WNW 6.9 mph - N/A   Clear
4:35 PM 39.2 °F 35.0 °F 3.2 °F 22% 30.11 in 10.0 mi WSW 5.8 mph - N/A   Clear
4:55 PM 37.4 °F 33.8 °F 3.2 °F 24% 30.11 in 10.0 mi NNW 4.6 mph - N/A   Clear
5:15 PM 37.4 °F 32.1 °F 3.2 °F 24% 30.10 in 10.0 mi WNW 6.9 mph - N/A   Clear
5:35 PM 37.4 °F 33.8 °F 3.2 °F 24% 30.09 in 10.0 mi WNW 4.6 mph - N/A   Clear
5:55 PM 35.6 °F - 3.2 °F 26% 30.09 in 10.0 mi Calm Calm - N/A   Clear
6:15 PM 33.8 °F - 6.8 °F 32% 30.10 in 10.0 mi Calm Calm - N/A   Clear
6:35 PM 32.0 °F - 14.0 °F 48% 30.10 in 10.0 mi Calm Calm - N/A   Clear
6:55 PM 30.2 °F - 14.0 °F 51% 30.10 in 10.0 mi Calm Calm - N/A   Clear
7:15 PM 30.2 °F - 12.2 °F 47% 30.10 in 10.0 mi Calm Calm - N/A   Clear
7:35 PM 28.4 °F - 14.0 °F 55% 30.11 in 10.0 mi Calm Calm - N/A   Clear
7:55 PM 26.6 °F - 12.2 °F 55% 30.11 in 10.0 mi North - - N/A   Clear
8:15 PM 26.6 °F - 14.0 °F 59% 30.11 in 10.0 mi Calm Calm - N/A   Clear
8:35 PM 24.8 °F - 14.0 °F 64% 30.11 in 10.0 mi Calm Calm - N/A   Clear
8:55 PM 23.0 °F - 14.0 °F 68% 30.12 in 10.0 mi Calm Calm - N/A   Clear
9:15 PM 23.0 °F - 14.0 °F 68% 30.13 in 10.0 mi Calm Calm - N/A   Clear
9:35 PM 23.0 °F - 14.0 °F 68% 30.13 in 10.0 mi Calm Calm - N/A   Clear
9:55 PM 21.2 °F - 14.0 °F 74% 30.13 in 10.0 mi Calm Calm - N/A   Clear
10:15 PM 21.2 °F - 14.0 °F 74% 30.13 in 10.0 mi Calm Calm - N/A   Clear
10:35 PM 21.2 °F - 12.2 °F 68% 30.13 in 10.0 mi Calm Calm - N/A   Clear
10:55 PM 19.4 °F - 14.0 °F 80% 30.12 in 10.0 mi Calm Calm - N/A   Clear
11:15 PM 19.4 °F - 12.2 °F 74% 30.12 in 10.0 mi Calm Calm - N/A   Clear
11:35 PM 19.4 °F - 12.2 °F 74% 30.12 in 10.0 mi Calm Calm - N/A   Clear
11:55 PM 19.4 °F - 14.0 °F 80% 30.11 in 10.0 mi Calm Calm - N/A   Clear